TIME,�g�[�{�C���[-���� [L],�t���O,�����{�C���[-���� [L],�t���O,�g�[�{�C���[-���� [MJ/h],�t���O,�����{�C���[-���� [MJ/h],�t���O
2003/1/1 0:00,0.089194,0,0,0,13.0936792,0,0,0
2003/1/1 0:15,0.089194,0,0.083398,0,13.0936792,0,12.2428264,0
2003/1/1 0:30,0.085169,0,0.07728,0,12.5028092,0,11.344704,0
2003/1/1 0:45,0.086135,0,0.121394,0,12.644618,0,17.8206392,0
2003/1/1 1:00,0.089355,0,0,0,13.117314,0,0,0
2003/1/1 1:15,0.087906,0,0,0,12.9046008,0,0,0
2003/1/1 1:30,0.085652,0,0,0,12.5737136,0,0,0
2003/1/1 1:45,0.02093,0,0,0,3.072524,0,0,0
2003/1/1 2:00,0,0,0,0,0,0,0,0
2003/1/1 2:15,0,0,0,0,0,0,0,0
2003/1/1 2:30,0,0,0,0,0,0,0,0
2003/1/1 2:45,0,0,0,0,0,0,0,0
2003/1/1 3:00,0,0,0,0,0,0,0,0
2003/1/1 3:15,0,0,0,0,0,0,0,0
2003/1/1 3:30,0,0,0,0,0,0,0,0
2003/1/1 3:45,0,0,0,0,0,0,0,0
2003/1/1 4:00,0,0,0,0,0,0,0,0
2003/1/1 4:15,0,0,0,0,0,0,0,0
2003/1/1 4:30,0,0,0,0,0,0,0,0
2003/1/1 4:45,0,0,0,0,0,0,0,0
2003/1/1 5:00,0,0,0,0,0,0,0,0
2003/1/1 5:15,0,0,0,0,0,0,0,0
2003/1/1 5:30,0,0,0,0,0,0,0,0
2003/1/1 5:45,0,0,0,0,0,0,0,0
2003/1/1 6:00,0,0,0,0,0,0,0,0
2003/1/1 6:15,0,0,0,0,0,0,0,0
2003/1/1 6:30,0,0,0,0,0,0,0,0
2003/1/1 6:45,0,0,0,0,0,0,0,0
2003/1/1 7:00,0.003864,0,0.189819,0,0.5672352,0,27.8654292,0
2003/1/1 7:15,0.059892,0,0,0,8.7921456,0,0,0
2003/1/1 7:30,0.095473,0,0,0,14.0154364,0,0,0
2003/1/1 7:45,0.089838,0,0,0,13.1882184,0,0,0
2003/1/1 8:00,0.089677,0,0,0,13.1645836,0,0,0
2003/1/1 8:15,0.089516,0,0,0,13.1409488,0,0,0
2003/1/1 8:30,0.089355,0,0,0,13.117314,0,0,0
2003/1/1 8:45,0.089355,0,0,0,13.117314,0,0,0
2003/1/1 9:00,0.089194,0,0,0,13.0936792,0,0,0
2003/1/1 9:15,0.088711,0,0,0,13.0227748,0,0,0
2003/1/1 9:30,0.088872,0,0,0,13.0464096,0,0,0
2003/1/1 9:45,0.083559,0,0,0,12.2664612,0,0,0
2003/1/1 10:00,0.087101,0,0,0,12.7864268,0,0,0
2003/1/1 10:15,0.084042,0,0,0,12.3373656,0,0,0
2003/1/1 10:30,0.081627,0,0,0,11.9828436,0,0,0
2003/1/1 10:45,0.087745,0,0,0,12.880966,0,0,0
2003/1/1 11:00,0.081949,0,0,0,12.0301132,0,0,0
2003/1/1 11:15,0.088711,0,0,0,13.0227748,0,0,0
2003/1/1 11:30,0.062468,0,0,0,9.1703024,0,0,0
2003/1/1 11:45,0.05796,0,0,0,8.508528,0,0,0
2003/1/1 12:00,0.09177,0,0,0,13.471836,0,0,0
2003/1/1 12:15,0.089194,0,0,0,13.0936792,0,0,0
2003/1/1 12:30,0.089033,0,0,0,13.0700444,0,0,0
2003/1/1 12:45,0.089194,0,0,0,13.0936792,0,0,0
2003/1/1 13:00,0.089033,0,0,0,13.0700444,0,0,0
2003/1/1 13:15,0.089033,0,0,0,13.0700444,0,0,0
2003/1/1 13:30,0.089194,0,0,0,13.0936792,0,0,0
2003/1/1 13:45,0.084847,0,0,0,12.4555396,0,0,0
2003/1/1 14:00,0.014007,0,0,0,2.0562276,0,0,0
2003/1/1 14:15,0.010787,0,0,0,1.5835316,0,0,0
2003/1/1 14:30,0.094507,0,0,0,13.8736276,0,0,0
2003/1/1 14:45,0.033005,0,0,0,4.845134,0,0,0
2003/1/1 15:00,0,0,0,0,0,0,0,0
2003/1/1 15:15,0,0,0,0,0,0,0,0
2003/1/1 15:30,0,0,0,0,0,0,0,0
2003/1/1 15:45,0,0,0,0,0,0,0,0
2003/1/1 16:00,0,0,0,0,0,0,0,0
2003/1/1 16:15,0,0,0,0,0,0,0,0
2003/1/1 16:30,0,0,0,0,0,0,0,0
2003/1/1 16:45,0,0,0,0,0,0,0,0
2003/1/1 17:00,0,0,0,0,0,0,0,0
2003/1/1 17:15,0,0,0,0,0,0,0,0
2003/1/1 17:30,0,0,0,0,0,0,0,0
2003/1/1 17:45,0,0,0,0,0,0,0,0
2003/1/1 18:00,0,0,0,0,0,0,0,0
2003/1/1 18:15,0,0,0,0,0,0,0,0
2003/1/1 18:30,0,0,0,0,0,0,0,0
2003/1/1 18:45,0,0,0,0,0,0,0,0
2003/1/1 19:00,0,0,0,0,0,0,0,0
2003/1/1 19:15,0,0,0,0,0,0,0,0
2003/1/1 19:30,0,0,0,0,0,0,0,0
2003/1/1 19:45,0,0,0,0,0,0,0,0
2003/1/1 20:00,0,0,0,0,0,0,0,0
2003/1/1 20:15,0,0,0,0,0,0,0,0
2003/1/1 20:30,0,0,0,0,0,0,0,0
2003/1/1 20:45,0,0,0,0,0,0,0,0
2003/1/1 21:00,0,0,0,0,0,0,0,0
2003/1/1 21:15,0,0,0,0,0,0,0,0
2003/1/1 21:30,0,0,0,0,0,0,0,0
2003/1/1 21:45,0,0,0,0,0,0,0,0
2003/1/1 22:00,0.004025,0,0.097888,0,0.59087,0,14.3699584,0
2003/1/1 22:15,0,0,0,0,0,0,0,0
2003/1/1 22:30,0,0,0,0,0,0,0,0
2003/1/1 22:45,0,0,0,0,0,0,0,0
2003/1/1 23:00,0,0,0,0,0,0,0,0
2003/1/1 23:15,0,0,0,0,0,0,0,0
2003/1/1 23:30,0,0,0,0,0,0,0,0
2003/1/1 23:45,0,0,0,0,0,0,0,0
2003/1/2 0:00,0,0,0,0,0,0,0,0
2003/1/2 0:15,0,0,0,0,0,0,0,0
2003/1/2 0:30,0,0,0,0,0,0,0,0
2003/1/2 0:45,0,0,0,0,0,0,0,0
2003/1/2 1:00,0,0,0,0,0,0,0,0
2003/1/2 1:15,0,0,0,0,0,0,0,0
2003/1/2 1:30,0,0,0,0,0,0,0,0
2003/1/2 1:45,0,0,0,0,0,0,0,0
2003/1/2 2:00,0,0,0,0,0,0,0,0
2003/1/2 2:15,0,0,0,0,0,0,0,0
2003/1/2 2:30,0,0,0,0,0,0,0,0
2003/1/2 2:45,0,0,0,0,0,0,0,0
2003/1/2 3:00,0,0,0,0,0,0,0,0
2003/1/2 3:15,0,0,0,0,0,0,0,0
2003/1/2 3:30,0,0,0,0,0,0,0,0
2003/1/2 3:45,0,0,0,0,0,0,0,0
2003/1/2 4:00,0,0,0,0,0,0,0,0
2003/1/2 4:15,0,0,0,0,0,0,0,0
2003/1/2 4:30,0,0,0,0,0,0,0,0
2003/1/2 4:45,0,0,0,0,0,0,0,0
2003/1/2 5:00,0,0,0,0,0,0,0,0
2003/1/2 5:15,0,0,0,0,0,0,0,0
2003/1/2 5:30,0,0,0,0,0,0,0,0
2003/1/2 5:45,0.075187,0,0.242949,0,11.0374516,0,35.6649132,0
2003/1/2 6:00,0.093863,0,0,0,13.7790884,0,0,0
2003/1/2 6:15,0.089516,0,0,0,13.1409488,0,0,0
2003/1/2 6:30,0.076314,0,0,0,11.2028952,0,0,0
2003/1/2 6:45,0,0,0,0,0,0,0,0
2003/1/2 7:00,0,0,0,0,0,0,0,0
2003/1/2 7:15,0,0,0,0,0,0,0,0
2003/1/2 7:30,0,0,0,0,0,0,0,0
2003/1/2 7:45,0,0,0,0,0,0,0,0
2003/1/2 8:00,0,0,0,0,0,0,0,0
2003/1/2 8:15,0,0,0,0,0,0,0,0
2003/1/2 8:30,0,0,0,0,0,0,0,0
2003/1/2 8:45,0,0,0,0,0,0,0,0
2003/1/2 9:00,0,0,0,0,0,0,0,0
2003/1/2 9:15,0,0,0,0,0,0,0,0
2003/1/2 9:30,0,0,0,0,0,0,0,0
2003/1/2 9:45,0,0,0,0,0,0,0,0
2003/1/2 10:00,0,0,0,0,0,0,0,0
2003/1/2 10:15,0,0,0,0,0,0,0,0
2003/1/2 10:30,0,0,0,0,0,0,0,0
2003/1/2 10:45,0,0,0,0,0,0,0,0
2003/1/2 11:00,0,0,0,0,0,0,0,0
2003/1/2 11:15,0,0,0,0,0,0,0,0
2003/1/2 11:30,0,0,0,0,0,0,0,0
2003/1/2 11:45,0,0,0,0,0,0,0,0
2003/1/2 12:00,0,0,0,0,0,0,0,0
2003/1/2 12:15,0,0,0,0,0,0,0,0
2003/1/2 12:30,0,0,0,0,0,0,0,0
2003/1/2 12:45,0,0,0,0,0,0,0,0
2003/1/2 13:00,0,0,0,0,0,0,0,0
2003/1/2 13:15,0,0,0,0,0,0,0,0
2003/1/2 13:30,0,0,0,0,0,0,0,0
2003/1/2 13:45,0,0,0,0,0,0,0,0
2003/1/2 14:00,0,0,0,0,0,0,0,0
2003/1/2 14:15,0,0,0,0,0,0,0,0
2003/1/2 14:30,0,0,0,0,0,0,0,0
2003/1/2 14:45,0,0,0,0,0,0,0,0
2003/1/2 15:00,0,0,0,0,0,0,0,0
2003/1/2 15:15,0,0,0,0,0,0,0,0
2003/1/2 15:30,0,0,0,0,0,0,0,0
2003/1/2 15:45,0,0,0,0,0,0,0,0
2003/1/2 16:00,0,0,0,0,0,0,0,0
2003/1/2 16:15,0,0,0,0,0,0,0,0
2003/1/2 16:30,0,0,0,0,0,0,0,0
2003/1/2 16:45,0,0,0,0,0,0,0,0
2003/1/2 17:00,0,0,0,0,0,0,0,0
2003/1/2 17:15,0,0,0,0,0,0,0,0
2003/1/2 17:30,0,0,0,0,0,0,0,0
2003/1/2 17:45,0,0,0,0,0,0,0,0
2003/1/2 18:00,0,0,0,0,0,0,0,0
2003/1/2 18:15,0,0,0,0,0,0,0,0
2003/1/2 18:30,0,0,0,0,0,0,0,0
2003/1/2 18:45,0.118335,0,0,0,17.371578,0,0,0
2003/1/2 19:00,0.097566,0,0,0,14.3226888,0,0,0
2003/1/2 19:15,0.097888,0,0,0,14.3699584,0,0,0
2003/1/2 19:30,0.094668,0,0,0,13.8972624,0,0,0
2003/1/2 19:45,0.094668,0,0,0,13.8972624,0,0,0
2003/1/2 20:00,0.092414,0,0,0,13.5663752,0,0,0
2003/1/2 20:15,0.095312,0,0,0,13.9918016,0,0,0
2003/1/2 20:30,0.088711,0,0,0,13.0227748,0,0,0
2003/1/2 20:45,0.092253,0,0,0,13.5427404,0,0,0
2003/1/2 21:00,0.089516,0,0,0,13.1409488,0,0,0
2003/1/2 21:15,0.089677,0,0,0,13.1645836,0,0,0
2003/1/2 21:30,0.089516,0,0,0,13.1409488,0,0,0
2003/1/2 21:45,0.089355,0,0,0,13.117314,0,0,0
2003/1/2 22:00,0.089355,0,0,0,13.117314,0,0,0
2003/1/2 22:15,0.095473,0,0.497812,0,14.0154364,0,73.0788016,0
2003/1/2 22:30,0.087745,0,0.440496,0,12.880966,0,64.6648128,0
2003/1/2 22:45,0.087584,0,0.033971,0,12.8573312,0,4.9869428,0
2003/1/2 23:00,0.089194,0,0.180481,0,13.0936792,0,26.4946108,0
2003/1/2 23:15,0.089516,0,0,0,13.1409488,0,0,0
2003/1/2 23:30,0.18354,0,0,0,26.943672,0,0,0
2003/1/2 23:45,0.049427,0,0,0,7.2558836,0,0,0
2003/1/3 0:00,0,0,0,0,0,0,0,0
2003/1/3 0:15,0.055545,0,0,0,8.154006,0,0,0
2003/1/3 0:30,0.089677,0,0,0,13.1645836,0,0,0
2003/1/3 0:45,0.089838,0,0,0,13.1882184,0,0,0
2003/1/3 1:00,0.088389,0,0,0,12.9755052,0,0,0
2003/1/3 1:15,0.044919,0,0.200928,0,6.5941092,0,29.4962304,0
2003/1/3 1:30,0.000161,0,0.04025,0,0.0236348,0,5.9087,0
2003/1/3 1:45,0,0,0,0,0,0,0,0
2003/1/3 2:00,0,0,0,0,0,0,0,0
2003/1/3 2:15,0,0,0,0,0,0,0,0
2003/1/3 2:30,0,0,0,0,0,0,0,0
2003/1/3 2:45,0,0,0,0,0,0,0,0
2003/1/3 3:00,0,0,0,0,0,0,0,0
2003/1/3 3:15,0,0,0,0,0,0,0,0
2003/1/3 3:30,0,0,0,0,0,0,0,0
2003/1/3 3:45,0,0,0,0,0,0,0,0
2003/1/3 4:00,0,0,0,0,0,0,0,0
2003/1/3 4:15,0,0,0,0,0,0,0,0
2003/1/3 4:30,0,0,0,0,0,0,0,0
2003/1/3 4:45,0,0,0,0,0,0,0,0
2003/1/3 5:00,0,0,0,0,0,0,0,0
2003/1/3 5:15,0,0,0,0,0,0,0,0
2003/1/3 5:30,0,0,0,0,0,0,0,0
2003/1/3 5:45,0,0,0,0,0,0,0,0
2003/1/3 6:00,0,0,0,0,0,0,0,0
2003/1/3 6:15,0,0,0,0,0,0,0,0
2003/1/3 6:30,0,0,0,0,0,0,0,0
2003/1/3 6:45,0,0,0,0,0,0,0,0
2003/1/3 7:00,0,0,0,0,0,0,0,0
2003/1/3 7:15,0.034776,0,0.177422,0,5.1051168,0,26.0455496,0
2003/1/3 7:30,0.102879,0,0.130249,0,15.1026372,0,19.1205532,0
2003/1/3 7:45,0.099498,0,0.101752,0,14.6063064,0,14.9371936,0
2003/1/3 8:00,0.09338,0,0.119784,0,13.708184,0,17.5842912,0
2003/1/3 8:15,0.092575,0,0.078085,0,13.59001,0,11.462878,0
2003/1/3 8:30,0.090804,0,0,0,13.3300272,0,0,0
2003/1/3 8:45,0.090965,0,0,0,13.353662,0,0,0
2003/1/3 9:00,0.090643,0,0,0,13.3063924,0,0,0
2003/1/3 9:15,0.089033,0,0,0,13.0700444,0,0,0
2003/1/3 9:30,0.089033,0,0,0,13.0700444,0,0,0
2003/1/3 9:45,0.089033,0,0,0,13.0700444,0,0,0
2003/1/3 10:00,0.090482,0,0,0,13.2827576,0,0,0
2003/1/3 10:15,0.090321,0,0,0,13.2591228,0,0,0
2003/1/3 10:30,0.088711,0,0,0,13.0227748,0,0,0
2003/1/3 10:45,0.088711,0,0,0,13.0227748,0,0,0
2003/1/3 11:00,0.08855,0,0,0,12.99914,0,0,0
2003/1/3 11:15,0.088228,0,0,0,12.9518704,0,0,0
2003/1/3 11:30,0.08855,0,0,0,12.99914,0,0,0
2003/1/3 11:45,0.089033,0,0,0,13.0700444,0,0,0
2003/1/3 12:00,0.088872,0,0,0,13.0464096,0,0,0
2003/1/3 12:15,0.089033,0,0,0,13.0700444,0,0,0
2003/1/3 12:30,0.09016,0,0,0,13.235488,0,0,0
2003/1/3 12:45,0.088872,0,0,0,13.0464096,0,0,0
2003/1/3 13:00,0.089033,0,0,0,13.0700444,0,0,0
2003/1/3 13:15,0.029785,0,0,0,4.372438,0,0,0
2003/1/3 13:30,0,0,0,0,0,0,0,0
2003/1/3 13:45,0,0,0,0,0,0,0,0
2003/1/3 14:00,0,0,0,0,0,0,0,0
2003/1/3 14:15,0,0,0,0,0,0,0,0
2003/1/3 14:30,0,0,0,0,0,0,0,0
2003/1/3 14:45,0,0,0,0,0,0,0,0
2003/1/3 15:00,0,0,0,0,0,0,0,0
2003/1/3 15:15,0,0,0,0,0,0,0,0
2003/1/3 15:30,0,0,0,0,0,0,0,0
2003/1/3 15:45,0,0,0,0,0,0,0,0
2003/1/3 16:00,0,0,0,0,0,0,0,0
2003/1/3 16:15,0,0,0,0,0,0,0,0
2003/1/3 16:30,0,0,0,0,0,0,0,0
2003/1/3 16:45,0,0,0,0,0,0,0,0
2003/1/3 17:00,0,0,0,0,0,0,0,0
2003/1/3 17:15,0,0,0,0,0,0,0,0
2003/1/3 17:30,0,0,0,0,0,0,0,0
2003/1/3 17:45,0,0,0,0,0,0,0,0
2003/1/3 18:00,0,0,0,0,0,0,0,0
2003/1/3 18:15,0,0,0,0,0,0,0,0
2003/1/3 18:30,0,0,0,0,0,0,0,0
2003/1/3 18:45,0,0,0,0,0,0,0,0
2003/1/3 19:00,0,0,0,0,0,0,0,0
2003/1/3 19:15,0,0,0,0,0,0,0,0
2003/1/3 19:30,0,0,0,0,0,0,0,0
2003/1/3 19:45,0,0,0,0,0,0,0,0
2003/1/3 20:00,0.034937,0,0,0,5.1287516,0,0,0
2003/1/3 20:15,0.100947,0,0,0,14.8190196,0,0,0
2003/1/3 20:30,0.089194,0,0,0,13.0936792,0,0,0
2003/1/3 20:45,0.088872,0,0,0,13.0464096,0,0,0
2003/1/3 21:00,0.088872,0,0,0,13.0464096,0,0,0
2003/1/3 21:15,0.088711,0,0,0,13.0227748,0,0,0
2003/1/3 21:30,0.088711,0,0,0,13.0227748,0,0,0
2003/1/3 21:45,0.088711,0,0,0,13.0227748,0,0,0
2003/1/3 22:00,0.088872,0,0,0,13.0464096,0,0,0
2003/1/3 22:15,0.088711,0,0,0,13.0227748,0,0,0
2003/1/3 22:30,0.087101,0,0,0,12.7864268,0,0,0
2003/1/3 22:45,0.088872,0,0,0,13.0464096,0,0,0
2003/1/3 23:00,0.089033,0,0,0,13.0700444,0,0,0
2003/1/3 23:15,0.088872,0,0,0,13.0464096,0,0,0
2003/1/3 23:30,0.089033,0,0,0,13.0700444,0,0,0
2003/1/3 23:45,0.089033,0,0,0,13.0700444,0,0,0
2003/1/4 0:00,0.088872,0,0,0,13.0464096,0,0,0
2003/1/4 0:15,0.088872,0,0,0,13.0464096,0,0,0
2003/1/4 0:30,0.017871,0,0,0,2.6234628,0,0,0
2003/1/4 0:45,0.117047,0,0,0,17.1824996,0,0,0
2003/1/4 1:00,0.125902,0,0,0,18.4824136,0,0,0
2003/1/4 1:15,0.013202,0,0,0,1.9380536,0,0,0
2003/1/4 1:30,0,0,0,0,0,0,0,0
2003/1/4 1:45,0,0,0,0,0,0,0,0
2003/1/4 2:00,0,0,0,0,0,0,0,0
2003/1/4 2:15,0,0,0,0,0,0,0,0
2003/1/4 2:30,0,0,0,0,0,0,0,0
2003/1/4 2:45,0,0,0,0,0,0,0,0
2003/1/4 3:00,0,0,0,0,0,0,0,0
2003/1/4 3:15,0,0,0,0,0,0,0,0
2003/1/4 3:30,0,0,0,0,0,0,0,0
2003/1/4 3:45,0,0,0,0,0,0,0,0
2003/1/4 4:00,0,0,0,0,0,0,0,0
2003/1/4 4:15,0,0,0,0,0,0,0,0
2003/1/4 4:30,0,0,0,0,0,0,0,0
2003/1/4 4:45,0,0,0,0,0,0,0,0
2003/1/4 5:00,0,0,0,0,0,0,0,0
2003/1/4 5:15,0,0,0,0,0,0,0,0
2003/1/4 5:30,0,0,0,0,0,0,0,0
2003/1/4 5:45,0,0,0,0,0,0,0,0
2003/1/4 6:00,0,0,0,0,0,0,0,0
2003/1/4 6:15,0,0,0,0,0,0,0,0
2003/1/4 6:30,0,0,0,0,0,0,0,0
2003/1/4 6:45,0,0,0,0,0,0,0,0
2003/1/4 7:00,0,0,0,0,0,0,0,0
2003/1/4 7:15,0.07245,0,0,0,10.63566,0,0,0
2003/1/4 7:30,0.092253,0,0,0,13.5427404,0,0,0
2003/1/4 7:45,0.089033,0,0,0,13.0700444,0,0,0
2003/1/4 8:00,0.088711,0,0,0,13.0227748,0,0,0
2003/1/4 8:15,0.08855,0,0,0,12.99914,0,0,0
2003/1/4 8:30,0.088389,0,0,0,12.9755052,0,0,0
2003/1/4 8:45,0.086618,0,0,0,12.7155224,0,0,0
2003/1/4 9:00,0.085008,0,0.0805,0,12.4791744,0,11.8174,0
2003/1/4 9:15,0.085491,0,0,0,12.5500788,0,0,0
2003/1/4 9:30,0.08372,0,0,0,12.290096,0,0,0
2003/1/4 9:45,0.078085,0,0,0,11.462878,0,0,0
2003/1/4 10:00,0.082593,0,0,0,12.1246524,0,0,0
2003/1/4 10:15,0.075348,0,0,0,11.0610864,0,0,0
2003/1/4 10:30,0.072933,0,0.254219,0,10.7065644,0,37.3193492,0
2003/1/4 10:45,0.077763,0,0.041377,0,11.4156084,0,6.0741436,0
2003/1/4 11:00,0.07084,0,0.087262,0,10.399312,0,12.8100616,0
2003/1/4 11:15,0.080017,0,0,0,11.7464956,0,0,0
2003/1/4 11:30,0.089033,0,0.023989,0,13.0700444,0,3.5215852,0
2003/1/4 11:45,0.081788,0,0,0,12.0064784,0,0,0
2003/1/4 12:00,0.084686,0,0,0,12.4319048,0,0,0
2003/1/4 12:15,0.073738,0,0,0,10.8247384,0,0,0
2003/1/4 12:30,0.022218,0,0,0,3.2616024,0,0,0
2003/1/4 12:45,0.022379,0,0,0,3.2852372,0,0,0
2003/1/4 13:00,0.018515,0,0,0,2.718002,0,0,0
2003/1/4 13:15,0.024472,0,0,0,3.5924896,0,0,0
2003/1/4 13:30,0.028175,0,0,0,4.13609,0,0,0
2003/1/4 13:45,0.066654,0,0,0,9.7848072,0,0,0
2003/1/4 14:00,0.025921,0,0,0,3.8052028,0,0,0
2003/1/4 14:15,0,0,0,0,0,0,0,0
2003/1/4 14:30,0,0,0,0,0,0,0,0
2003/1/4 14:45,0,0,0,0,0,0,0,0
2003/1/4 15:00,0,0,0,0,0,0,0,0
2003/1/4 15:15,0,0,0,0,0,0,0,0
2003/1/4 15:30,0,0,0,0,0,0,0,0
2003/1/4 15:45,0,0,0,0,0,0,0,0
2003/1/4 16:00,0,0,0,0,0,0,0,0
2003/1/4 16:15,0,0,0,0,0,0,0,0
2003/1/4 16:30,0,0,0,0,0,0,0,0
2003/1/4 16:45,0,0,0,0,0,0,0,0
2003/1/4 17:00,0,0,0,0,0,0,0,0
2003/1/4 17:15,0,0,0,0,0,0,0,0
2003/1/4 17:30,0,0,0,0,0,0,0,0
2003/1/4 17:45,0,0,0,0,0,0,0,0
2003/1/4 18:00,0,0,0,0,0,0,0,0
2003/1/4 18:15,0,0,0,0,0,0,0,0
2003/1/4 18:30,0,0,0,0,0,0,0,0
2003/1/4 18:45,0,0,0,0,0,0,0,0
2003/1/4 19:00,0,0,0,0,0,0,0,0
2003/1/4 19:15,0,0,0,0,0,0,0,0
2003/1/4 19:30,0,0,0,0,0,0,0,0
2003/1/4 19:45,0,0,0,0,0,0,0,0
2003/1/4 20:00,0,0,0,0,0,0,0,0
2003/1/4 20:15,0,0,0,0,0,0,0,0
2003/1/4 20:30,0,0,0,0,0,0,0,0
2003/1/4 20:45,0,0,0,0,0,0,0,0
2003/1/4 21:00,0,0,0,0,0,0,0,0
2003/1/4 21:15,0,0,0,0,0,0,0,0
2003/1/4 21:30,0,0,0,0,0,0,0,0
2003/1/4 21:45,0.115759,0,0,0,16.9934212,0,0,0
2003/1/4 22:00,0.089033,0,0,0,13.0700444,0,0,0
2003/1/4 22:15,0.084525,0,0,0,12.40827,0,0,0
2003/1/4 22:30,0.091931,0,0,0,13.4954708,0,0,0
2003/1/4 22:45,0.088711,0,0,0,13.0227748,0,0,0
2003/1/4 23:00,0.08855,0,0,0,12.99914,0,0,0
2003/1/4 23:15,0.078568,0,0,0,11.5337824,0,0,0
2003/1/4 23:30,0.062307,0,0,0,9.1466676,0,0,0
2003/1/4 23:45,0.087745,0,0.481873,0,12.880966,0,70.7389564,0
2003/1/5 0:00,0.087101,0,0.431319,0,12.7864268,0,63.3176292,0
2003/1/5 0:15,0.08855,0,0.113022,0,12.99914,0,16.5916296,0
2003/1/5 0:30,0.08855,0,0,0,12.99914,0,0,0
2003/1/5 0:45,0.08855,0,0,0,12.99914,0,0,0
2003/1/5 1:00,0.094829,0,0.194649,0,13.9208972,0,28.5744732,0
2003/1/5 1:15,0.083076,0,0.031717,0,12.1955568,0,4.6560556,0
2003/1/5 1:30,0.030107,0,0.096439,0,4.4197076,0,14.1572452,0
2003/1/5 1:45,0.000322,0,0.038318,0,0.0472696,0,5.6250824,0
2003/1/5 2:00,0,0,0,0,0,0,0,0
2003/1/5 2:15,0,0,0,0,0,0,0,0
2003/1/5 2:30,0,0,0,0,0,0,0,0
2003/1/5 2:45,0,0,0,0,0,0,0,0
2003/1/5 3:00,0,0,0,0,0,0,0,0
2003/1/5 3:15,0,0,0,0,0,0,0,0
2003/1/5 3:30,0,0,0,0,0,0,0,0
2003/1/5 3:45,0,0,0,0,0,0,0,0
2003/1/5 4:00,0,0,0,0,0,0,0,0
2003/1/5 4:15,0,0,0,0,0,0,0,0
2003/1/5 4:30,0,0,0,0,0,0,0,0
2003/1/5 4:45,0,0,0,0,0,0,0,0
2003/1/5 5:00,0,0,0,0,0,0,0,0
2003/1/5 5:15,0,0,0,0,0,0,0,0
2003/1/5 5:30,0,0,0,0,0,0,0,0
2003/1/5 5:45,0,0,0,0,0,0,0,0
2003/1/5 6:00,0,0,0,0,0,0,0,0
2003/1/5 6:15,0,0,0,0,0,0,0,0
2003/1/5 6:30,0,0,0,0,0,0,0,0
2003/1/5 6:45,0,0,0,0,0,0,0,0
2003/1/5 7:00,0,0,0,0,0,0,0,0
2003/1/5 7:15,0.000644,0,0.089194,0,0.0945392,0,13.0936792,0
2003/1/5 7:30,0.082593,0,0,0,12.1246524,0,0,0
2003/1/5 7:45,0.096278,0,0,0,14.1336104,0,0,0
2003/1/5 8:00,0.094346,0,0,0,13.8499928,0,0,0
2003/1/5 8:15,0.09177,0,0,0,13.471836,0,0,0
2003/1/5 8:30,0.092092,0,0,0,13.5191056,0,0,0
2003/1/5 8:45,0.092897,0,0,0,13.6372796,0,0,0
2003/1/5 9:00,0.091609,0,0,0,13.4482012,0,0,0
2003/1/5 9:15,0.09177,0,0,0,13.471836,0,0,0
2003/1/5 9:30,0.09177,0,0,0,13.471836,0,0,0
2003/1/5 9:45,0.001127,0,0,0,0.1654436,0,0,0
2003/1/5 10:00,0.083237,0,0,0,12.2191916,0,0,0
2003/1/5 10:15,0.087262,0,0,0,12.8100616,0,0,0
2003/1/5 10:30,0.087101,0,0,0,12.7864268,0,0,0
2003/1/5 10:45,0.088872,0,0,0,13.0464096,0,0,0
2003/1/5 11:00,0.084847,0,0,0,12.4555396,0,0,0
2003/1/5 11:15,0.087101,0,0,0,12.7864268,0,0,0
2003/1/5 11:30,0.086618,0,0,0,12.7155224,0,0,0
2003/1/5 11:45,0.087423,0,0,0,12.8336964,0,0,0
2003/1/5 12:00,0.089033,0,0,0,13.0700444,0,0,0
2003/1/5 12:15,0.089033,0,0,0,13.0700444,0,0,0
2003/1/5 12:30,0.076797,0,0,0,11.2737996,0,0,0
2003/1/5 12:45,0.081144,0,0,0,11.9119392,0,0,0
2003/1/5 13:00,0.027048,0,0,0,3.9706464,0,0,0
2003/1/5 13:15,0.079212,0,0,0,11.6283216,0,0,0
2003/1/5 13:30,0.089194,0,0,0,13.0936792,0,0,0
2003/1/5 13:45,0.087906,0,0,0,12.9046008,0,0,0
2003/1/5 14:00,0.089194,0,0,0,13.0936792,0,0,0
2003/1/5 14:15,0.080822,0,0,0,11.8646696,0,0,0
2003/1/5 14:30,0.046046,0,0,0,6.7595528,0,0,0
2003/1/5 14:45,0.048139,0,0,0,7.0668052,0,0,0
2003/1/5 15:00,0.004025,0,0,0,0.59087,0,0,0
2003/1/5 15:15,0,0,0,0,0,0,0,0
2003/1/5 15:30,0,0,0,0,0,0,0,0
2003/1/5 15:45,0,0,0,0,0,0,0,0
2003/1/5 16:00,0,0,0,0,0,0,0,0
2003/1/5 16:15,0,0,0,0,0,0,0,0
2003/1/5 16:30,0,0,0,0,0,0,0,0
2003/1/5 16:45,0,0,0,0,0,0,0,0
2003/1/5 17:00,0,0,0,0,0,0,0,0
2003/1/5 17:15,0,0,0,0,0,0,0,0
2003/1/5 17:30,0,0,0,0,0,0,0,0
2003/1/5 17:45,0,0,0,0,0,0,0,0
2003/1/5 18:00,0,0,0,0,0,0,0,0
2003/1/5 18:15,0,0,0,0,0,0,0,0
2003/1/5 18:30,0,0,0,0,0,0,0,0
2003/1/5 18:45,0,0,0,0,0,0,0,0
2003/1/5 19:00,0,0,0,0,0,0,0,0
2003/1/5 19:15,0,0,0,0,0,0,0,0
2003/1/5 19:30,0,0,0,0,0,0,0,0
2003/1/5 19:45,0,0,0,0,0,0,0,0
2003/1/5 20:00,0.089355,0,0,0,13.117314,0,0,0
2003/1/5 20:15,0.093702,0,0,0,13.7554536,0,0,0
2003/1/5 20:30,0.092736,0,0,0,13.6136448,0,0,0
2003/1/5 20:45,0.092253,0,0,0,13.5427404,0,0,0
2003/1/5 21:00,0.091126,0,0,0,13.3772968,0,0,0
2003/1/5 21:15,0.090965,0,0,0,13.353662,0,0,0
2003/1/5 21:30,0.089677,0,0,0,13.1645836,0,0,0
2003/1/5 21:45,0.092253,0,0,0,13.5427404,0,0,0
2003/1/5 22:00,0.090965,0,0,0,13.353662,0,0,0
2003/1/5 22:15,0.090965,0,0,0,13.353662,0,0,0
2003/1/5 22:30,0.09821,0,0.085652,0,14.417228,0,12.5737136,0
2003/1/5 22:45,0.08533,0,0.160195,0,12.526444,0,23.516626,0
2003/1/5 23:00,0.089355,0,0,0,13.117314,0,0,0
2003/1/5 23:15,0.090965,0,0,0,13.353662,0,0,0
2003/1/5 23:30,0.089194,0,0,0,13.0936792,0,0,0
2003/1/5 23:45,0.035098,0,0,0,5.1523864,0,0,0
2003/1/6 0:00,0,0,0,0,0,0,0,0
2003/1/6 0:15,0,0,0,0,0,0,0,0
2003/1/6 0:30,0,0,0,0,0,0,0,0
2003/1/6 0:45,0,0,0,0,0,0,0,0
2003/1/6 1:00,0,0,0,0,0,0,0,0
2003/1/6 1:15,0,0,0,0,0,0,0,0
2003/1/6 1:30,0,0,0,0,0,0,0,0
2003/1/6 1:45,0,0,0,0,0,0,0,0
2003/1/6 2:00,0,0,0,0,0,0,0,0
2003/1/6 2:15,0,0,0,0,0,0,0,0
2003/1/6 2:30,0,0,0,0,0,0,0,0
2003/1/6 2:45,0,0,0,0,0,0,0,0
2003/1/6 3:00,0,0,0,0,0,0,0,0
2003/1/6 3:15,0,0,0,0,0,0,0,0
2003/1/6 3:30,0,0,0,0,0,0,0,0
2003/1/6 3:45,0,0,0,0,0,0,0,0
2003/1/6 4:00,0,0,0,0,0,0,0,0
2003/1/6 4:15,0,0,0,0,0,0,0,0
2003/1/6 4:30,0,0,0,0,0,0,0,0
2003/1/6 4:45,0,0,0,0,0,0,0,0
2003/1/6 5:00,0,0,0,0,0,0,0,0
2003/1/6 5:15,0,0,0,0,0,0,0,0
2003/1/6 5:30,0,0,0,0,0,0,0,0
2003/1/6 5:45,0,0,0,0,0,0,0,0
2003/1/6 6:00,0,0,0,0,0,0,0,0
2003/1/6 6:15,0,0,0,0,0,0,0,0
2003/1/6 6:30,0,0,0,0,0,0,0,0
2003/1/6 6:45,0,0,0,0,0,0,0,0
2003/1/6 7:00,0,0,0,0,0,0,0,0
2003/1/6 7:15,0.075509,0,0.103362,0,11.0847212,0,15.1735416,0
2003/1/6 7:30,0.100786,0,0,0,14.7953848,0,0,0
2003/1/6 7:45,0.098371,0,0,0,14.4408628,0,0,0
2003/1/6 8:00,0.095795,0,0,0,14.062706,0,0,0
2003/1/6 8:15,0.093863,0,0,0,13.7790884,0,0,0
2003/1/6 8:30,0.094668,0,0,0,13.8972624,0,0,0
2003/1/6 8:45,0.017388,0,0,0,2.5525584,0,0,0
2003/1/6 9:00,0,0,0,0,0,0,0,0
2003/1/6 9:15,0,0,0,0,0,0,0,0
2003/1/6 9:30,0,0,0,0,0,0,0,0
2003/1/6 9:45,0,0,0,0,0,0,0,0
2003/1/6 10:00,0,0,0,0,0,0,0,0
2003/1/6 10:15,0,0,0,0,0,0,0,0
2003/1/6 10:30,0,0,0,0,0,0,0,0
2003/1/6 10:45,0,0,0,0,0,0,0,0
2003/1/6 11:00,0,0,0,0,0,0,0,0
2003/1/6 11:15,0,0,0,0,0,0,0,0
2003/1/6 11:30,0,0,0,0,0,0,0,0
2003/1/6 11:45,0,0,0,0,0,0,0,0
2003/1/6 12:00,0,0,0,0,0,0,0,0
2003/1/6 12:15,0,0,0,0,0,0,0,0
2003/1/6 12:30,0,0,0,0,0,0,0,0
2003/1/6 12:45,0,0,0,0,0,0,0,0
2003/1/6 13:00,0,0,0,0,0,0,0,0
2003/1/6 13:15,0,0,0,0,0,0,0,0
2003/1/6 13:30,0,0,0,0,0,0,0,0
2003/1/6 13:45,0,0,0,0,0,0,0,0
2003/1/6 14:00,0,0,0,0,0,0,0,0
2003/1/6 14:15,0,0,0,0,0,0,0,0
2003/1/6 14:30,0,0,0,0,0,0,0,0
2003/1/6 14:45,0,0,0,0,0,0,0,0
2003/1/6 15:00,0,0,0,0,0,0,0,0
2003/1/6 15:15,0,0,0,0,0,0,0,0
2003/1/6 15:30,0,0,0,0,0,0,0,0
2003/1/6 15:45,0,0,0,0,0,0,0,0
2003/1/6 16:00,0,0,0,0,0,0,0,0
2003/1/6 16:15,0,0,0,0,0,0,0,0
2003/1/6 16:30,0,0,0,0,0,0,0,0
2003/1/6 16:45,0,0,0,0,0,0,0,0
2003/1/6 17:00,0,0,0,0,0,0,0,0
2003/1/6 17:15,0.11753,0,0,0,17.253404,0,0,0
2003/1/6 17:30,0.093541,0,0,0,13.7318188,0,0,0
2003/1/6 17:45,0.094346,0,0,0,13.8499928,0,0,0
2003/1/6 18:00,0.094829,0,0,0,13.9208972,0,0,0
2003/1/6 18:15,0.09499,0,0,0,13.944532,0,0,0
2003/1/6 18:30,0.094024,0,0,0,13.8027232,0,0,0
2003/1/6 18:45,0.09338,0,0,0,13.708184,0,0,0
2003/1/6 19:00,0.09338,0,0,0,13.708184,0,0,0
2003/1/6 19:15,0.090965,0,0,0,13.353662,0,0,0
2003/1/6 19:30,0.090482,0,0,0,13.2827576,0,0,0
2003/1/6 19:45,0.092092,0,0,0,13.5191056,0,0,0
2003/1/6 20:00,0.091931,0,0,0,13.4954708,0,0,0
2003/1/6 20:15,0.092575,0,0,0,13.59001,0,0,0
2003/1/6 20:30,0.089033,0,0,0,13.0700444,0,0,0
2003/1/6 20:45,0.089033,0,0,0,13.0700444,0,0,0
2003/1/6 21:00,0.09338,0,0.124775,0,13.708184,0,18.31697,0
2003/1/6 21:15,0.08533,0,0.044758,0,12.526444,0,6.5704744,0
2003/1/6 21:30,0.088872,0,0.019964,0,13.0464096,0,2.9307152,0
2003/1/6 21:45,0.088872,0,0,0,13.0464096,0,0,0
2003/1/6 22:00,0.089033,0,0,0,13.0700444,0,0,0
2003/1/6 22:15,0.095634,0,0.413448,0,14.0390712,0,60.6941664,0
2003/1/6 22:30,0.089033,0,0.436632,0,13.0700444,0,64.0975776,0
2003/1/6 22:45,0.089516,0,0,0,13.1409488,0,0,0
2003/1/6 23:00,0.091931,0,0.134596,0,13.4954708,0,19.7586928,0
2003/1/6 23:15,0.09177,0,0,0,13.471836,0,0,0
2003/1/6 23:30,0.090482,0,0,0,13.2827576,0,0,0
2003/1/6 23:45,0.090643,0,0,0,13.3063924,0,0,0
2003/1/7 0:00,0.089677,0,0,0,13.1645836,0,0,0
2003/1/7 0:15,0.023828,0,0,0,3.4979504,0,0,0
2003/1/7 0:30,0,0,0,0,0,0,0,0
2003/1/7 0:45,0,0,0,0,0,0,0,0
2003/1/7 1:00,0.005313,0,0.061341,0,0.7799484,0,9.0048588,0
2003/1/7 1:15,0.000322,0,0.15134,0,0.0472696,0,22.216712,0
2003/1/7 1:30,0,0,0,0,0,0,0,0
2003/1/7 1:45,0,0,0,0,0,0,0,0
2003/1/7 2:00,0,0,0,0,0,0,0,0
2003/1/7 2:15,0,0,0,0,0,0,0,0
2003/1/7 2:30,0,0,0,0,0,0,0,0
2003/1/7 2:45,0,0,0,0,0,0,0,0
2003/1/7 3:00,0,0,0,0,0,0,0,0
2003/1/7 3:15,0,0,0,0,0,0,0,0
2003/1/7 3:30,0,0,0,0,0,0,0,0
2003/1/7 3:45,0,0,0,0,0,0,0,0
2003/1/7 4:00,0,0,0,0,0,0,0,0
2003/1/7 4:15,0,0,0,0,0,0,0,0
2003/1/7 4:30,0,0,0,0,0,0,0,0
2003/1/7 4:45,0,0,0,0,0,0,0,0
2003/1/7 5:00,0,0,0,0,0,0,0,0
2003/1/7 5:15,0,0,0,0,0,0,0,0
2003/1/7 5:30,0,0,0,0,0,0,0,0
2003/1/7 5:45,0,0,0,0,0,0,0,0
2003/1/7 6:00,0,0,0,0,0,0,0,0
2003/1/7 6:15,0,0,0,0,0,0,0,0
2003/1/7 6:30,0,0,0,0,0,0,0,0
2003/1/7 6:45,0,0,0,0,0,0,0,0
2003/1/7 7:00,0,0,0,0,0,0,0,0
2003/1/7 7:15,0,0,0,0,0,0,0,0
2003/1/7 7:30,0,0,0,0,0,0,0,0
2003/1/7 7:45,0,0,0,0,0,0,0,0
2003/1/7 8:00,0,0,0,0,0,0,0,0
2003/1/7 8:15,0,0,0,0,0,0,0,0
2003/1/7 8:30,0.095795,0,0,0,14.062706,0,0,0
2003/1/7 8:45,0.098371,0,0,0,14.4408628,0,0,0